Location: Riverside Cemetery
(38.3047°N, 99.7773°W)
Time: 11:05:21
(UTC+00:00)

In-Cosmos 22 - Pass Details

Date: 19 September 2020
Orbit: 785 x 876 km, 81.2° (Epoch: 25 October)

Event Time Altitude Azimuth Distance (km) Brightness Sun altitude
Rises 01:57:12 0° 356° (N) 3,284 7.5 -15.5°
Reaches altitude 10° 01:59:38 10° 2° (N) 2,355 6.7 -16.0°
Maximum altitude 02:04:46 49° 78° (ENE) 1,014 4.2 -17.0°
Enters shadow 02:07:55 23° 143° (SE) 1,655 5.3 -17.5°
